Regional Weather Roundup
Issued by NWS

Home | Current Version | Previous Version | Text Only | Print | Product List | Glossary On
Versions: 1 2 3 4 5 6 7 8 9 10 11 12 13 14 15 16 17 18 19 20 21 22 23 24 25 26 27 28 29 30 31 32 33 34 35 36 37 38 39 40 41 42 43 44 45 46 47 48 49 50
932
ASHW40 PHFO 091412
RWRHI

WEATHER ROUNDUP FOR HAWAII
NATIONAL WEATHER SERVICE HONOLULU HI
400 AM HST FRI DEC 09 2016

THIS IS AN AUTOMATED REPORT THAT HAS NOT BEEN QUALITY CONTROLLED.

NOTE..."FAIR" INDICATES FEW OR NO CLOUDS BELOW 12,000 FEET WITH NO
SIGNIFICANT WEATHER AND/OR OBSTRUCTIONS TO VISIBILITY.

* - THESE SITES REPORT LIMITED FIELDS

HIZ001>004-091500-
KAUAI-NIIHAU-

CITY           SKY/WX    TMP DP  RH WIND       PRES   REMARKS
LIHUE APT      CLOUDY    68  66  93 W7        29.93R
PORT ALLEN*      N/A     68 N/A N/A N6          N/A
POIPU*           N/A     68 N/A N/A NW2         N/A
PRINCEVILLE*   NOT AVBL
KOKOLE POINT*  NOT AVBL
MOLOAA DAIRY*    N/A     70  66  88 SE3G9       N/A
WAIMEA HTS*    NOT AVBL
PUU OPAE*      NOT AVBL
PUU LUA*       NOT AVBL
MAKAHA RIDGE*  NOT AVBL
$$

HIZ005>011-091500-
OAHU-

CITY           SKY/WX    TMP DP  RH WIND       PRES   REMARKS
HONOLULU       LGT RAIN  72  68  87 NW3       29.91F
KALAELOA       LGT RAIN  71  68  90 NE3       29.93S
KANEOHE MCB    PTCLDY    72  71  97 CALM      29.88
WHEELER FIELD  NOT AVBL
BELLOWS*       NOT AVBL
KAHUKU*        NOT AVBL
WHEELER*       NOT AVBL
WAIANAE HARBOR NOT AVBL
DILLINGHAM*      N/A     70  66  88 MISG        N/A
KAHUKU TRN*      N/A     70  66  88 N2          N/A
KAWAILOA*        N/A     66  64  94 E5          N/A
KII*             N/A     70  70 100 SE3         N/A
MAKUA RANGE*     N/A     75  73  94 NW3         N/A
OAHU FOREST NW NOT AVBL
SCHOFIELD BRK*   N/A     66  64  94 MISG        N/A
SCHOFIELD S*   NOT AVBL
WAIANAE VLY*   NOT AVBL
KUAOKALA*      NOT AVBL
HONOULIUULI*   NOT AVBL
MOKUOLOE IS*   NOT AVBL
PALEHUA*       NOT AVBL
WAIAWA PHB*    NOT AVBL
$$

HIZ012>013-091500-
MOLOKAI-

CITY           SKY/WX    TMP DP  RH WIND       PRES   REMARKS
MOLOKAI AIRPT    N/A     72  70  93 SE7       29.92F
KALAUPAPA      NOT AVBL
MAKAPULAPAI*   NOT AVBL
MOLOKAI 1*     NOT AVBL
PUU ALII*      NOT AVBL
$$

HIZ016-091500-
KAHOOLAWE-

CITY           SKY/WX    TMP DP  RH WIND       PRES   REMARKS
KAHOOLAWE*     NOT AVBL
HAKIOAWA*      NOT AVBL
HONOKANAIA*      N/A     73  69  87 N3G12     29.86F
KANELOA*         N/A     70  68  94 NW6G12    29.99S
KEALIALALO*    NOT AVBL
LUA MAKIKA*    NOT AVBL
$$

HIZ014>015-091500-
LANAI-

CITY           SKY/WX    TMP DP  RH WIND       PRES   REMARKS
LANAI CITY     LGT RAIN  68  68 100 SW3       29.98R
LANAI 1*       NOT AVBL
$$

HIZ017>028-091500-
MAUI-

CITY           SKY/WX    TMP DP  RH WIND       PRES   REMARKS
KAHULUI        CLOUDY    73  70  90 SE5       29.91F
KAPALUA-W MAUI NOT AVBL
HANA AIRPORT   LGT RAIN  72  70  94 S2        29.95S
HANA*            N/A     72 N/A N/A S3          N/A
HALEAKALA SUMM   N/A     41  39  93 SW12G31     N/A
MAALAEA BAY*   NOT AVBL
HALEAKALA*     NOT AVBL
KAUPO GAP*     NOT AVBL
KULA 1*          N/A     53  51  94 S3G10       N/A
$$

HIZ023>026-091500-
BIG ISLAND OF HAWAII COAST AND LOWER SLOPES-

CITY           SKY/WX    TMP DP  RH WIND       PRES   REMARKS
KAILUA KONA    CLOUDY    73  72  96 SW3       29.91S
HILO           MOCLDY    68  62  81 S3        29.92F
HONOKAA*         N/A     68 N/A N/A VRB1        N/A
KAWAIHAE MWT*    N/A     73 N/A N/A E2          N/A
KAWAIHAE*      NOT AVBL
SOUTH POINT*     N/A     66 N/A N/A NW7         N/A
UPOLU AIRPORT* NOT AVBL
KAMUELA*         N/A     64  64 100 CALM      30.02S VSB 1/4
HAKALAU*         N/A     46  32  57 W6          N/A
KALOKO-HONOKO* NOT AVBL
PALI 2*          N/A     59  54  82 S8          N/A
KEALAKOMO*       N/A     73  63  68 N1          N/A
KAUPULEHU*     NOT AVBL
KAPAPALA*      NOT AVBL
LOWER KAHUKU*  NOT AVBL
PUHE CS*       NOT AVBL
PUHO CS*       NOT AVBL
PTA KEAMUKU*     N/A     63  63 100 CALM        N/A
WAIKOLOA*      NOT AVBL
$$

HIZ027>028-091500-
BIG ISLAND OF HAWAII INTERIOR AND SUMMMITS-

CITY           SKY/WX    TMP DP  RH WIND       PRES   REMARKS
BRADSHAW FIELD NOT AVBL
MK VISITOR CEN   N/A     52   0  11 N3          N/A
MAUNA KEA*       N/A     32  19  59 S22         N/A  WCI  19
MAUNA LOA*     NOT AVBL
MAUNA LOA 1*   NOT AVBL
PTA KIPUKA*      N/A     64  64 100 E3          N/A
PTA RANGE 17*    N/A     55  52  88 E3          N/A
PTA WEST*        N/A    N/A N/A N/A W1          N/A
NENE CABIN*    NOT AVBL
AHUMOA*        NOT AVBL
PTA PORTABLE*  NOT AVBL
PUU MALI*        N/A     54  54 100 E3          N/A
$$

HIC003-091500-
NORTHWEST ISLANDS-

CITY           SKY/WX    TMP DP  RH WIND       PRES   REMARKS
MIDWAY ISLAND  CLOUDY    70  59  68 SE5       30.00F
MIDWAY NOS*    NOT AVBL
FRENCH FRIGATE NOT AVBL
$$

PHZ110>124-180-091500-
BUOY REPORTS

STATION/POSITION TIME  TEMP    WIND        PRES    WAVE   SWELL
                       AIR SEA DIR/SP/G            HT/PER HT/DIR
                 (UTC) (F)     (DEG/KT/KT) (MB)    (FT/S) (FT/D)
BUOY 51001       1350   75 78  340/  4/  6 1011.9F   7/11   7/340
BUOY 51101       1350   75 78  320/  8/ 12 1012.5F   6/12   7/350
BUOY 51100       NOT AVBL
BUOY 51002       1350   78 78  100/ 14/ 17 1011.9F   6/ 8   5/100
BUOY 51003       1350   75 79  110/ 17/ 19 1011.4F   5/11   3/350
BUOY 51004       1250   76 79  120/ 12/ 16 1012.7    6/14   5/350
BARBERS PT BUOY  NOT AVBL
WAIMEA BAY BUOY  NOT AVBL
KAILUA BAY BUOY  1304      78                N/A     4/11   2/ 10
LANAI BUOY       1345      78                N/A     2/12   2/280
BARBERS PT 2     1339      78                N/A     3/13   2/290
PAUWELA MAUI     1339      77                N/A     4/13   3/330
HILO             1342      77                N/A     5/13   3/340
KANEOHE BAY BUOY 1306      77                N/A     4/11   3/ 20
HANALEI KAUAI    1352      77                N/A     5/13   3/320
KAHULUI HARBOR   1348   72 78  130/  2/  3 1012.8F
HONOLULU HARBOR  1348   71 78  190/  1/  1 1013.6F
KILO NALU        NOT AVBL
HILO HARBOR      1348   69 76  180/  3/  5 1012.9F
MOKUOLOE         1336   70     180/  2/  2   N/A
NAWILIWILI       1348   69 80  250/  6/  7 1013.6R
WHOTS BUOY       NOT AVBL
BUOY 51028       NOT AVBL
$$

......................KEY........................................
  SKY/WX - SKY CONDITIONS/PRESENT WEATHER
  TMP    - TEMPERATURE IN FAHRENHEIT
  DWPT   - DEWPOINT IN FAHRENHEIT
  RH     - RELATIVE HUMIDITY IN PERCENT
  WIND   - DIRECTION AND SPEED /MPH FOR ISLANDS...KTS FOR BUOYS/
  PRES   - MEAN SEA LEVEL PRESSURE IN INCHES OF HG
  VSB    - VISIBILITY IN MILES
  HX     - HEAT INDEX
  WCI    - WIND CHILL INDEX
  VRB    - VARIABLE WIND DIRECTION
  N/A    - NOT AVAILABLE




USA.gov is the U.S. government's official web portal to all federal, state and local government web resources and services.